Theta_e
310 312 314 315 314 310 309 308 308 308 309 309 309 309 310 310 310 313 317 319 318 322 324 327 333 334 337 338 340 342 348 347 345 344 342 342 343 343 344 345 347 347 346 348 348
311 312 313 314 315 313 310 309 308 309 309 309 310 310 310 311 317 316 317 316 316 322 327 328 330 332 334 336 341 344 347 346 344 343 343 342 342 342 343 344 347 347 349 348 349
310 312 313 314 315 315 312 310 309 309 309 310 310 310 311 311 320 325 318 316 317 322 323 325 327 331 334 335 341 343 346 343 343 342 342 342 342 341 342 341 341 344 347 351 349
309 310 312 314 315 316 314 310 309 309 309 310 310 311 311 321 327 324 318 316 316 326 322 326 328 332 335 336 337 343 341 342 341 341 340 340 340 341 341 344 347 344 342 351 351
309 311 311 313 315 316 316 312 310 309 309 310 310 311 317 322 327 324 320 315 319 323 324 327 329 332 335 334 337 341 340 340 341 339 340 337 338 340 342 346 345 345 344 349 350
307 311 313 313 315 317 317 314 310 310 310 310 310 312 322 327 320 326 327 318 325 322 323 325 328 330 332 334 336 336 337 339 339 338 338 337 337 341 345 348 348 348 350 349 350
309 308 310 315 316 317 318 314 311 310 310 310 310 315 323 324 324 331 328 323 322 321 324 325 326 330 332 334 334 335 338 337 336 335 335 336 338 340 343 347 350 350 350 349 350
310 308 308 312 318 317 318 314 311 310 310 310 311 322 325 319 323 324 323 322 320 321 322 326 326 330 332 333 335 335 337 339 336 334 336 336 338 343 343 344 348 349 349 349 350
311 309 309 311 317 318 317 313 311 310 310 312 320 324 326 318 322 323 323 324 321 321 324 324 328 332 333 335 336 337 337 336 335 334 335 336 336 343 344 344 346 347 348 349 350
311 310 309 314 316 319 316 311 311 313 314 319 323 327 326 328 325 323 323 323 326 325 329 330 332 334 334 335 338 337 335 334 335 335 335 335 336 339 344 345 345 347 348 347 346
311 310 310 316 317 319 313 318 324 326 322 324 325 326 326 325 325 325 323 326 329 331 334 333 334 335 335 334 334 334 334 334 333 333 333 334 334 335 343 345 345 346 347 345 343
311 310 310 318 318 317 316 319 321 321 325 321 321 321 322 322 327 328 325 330 330 333 333 333 335 335 334 333 334 334 334 333 332 333 335 333 334 334 340 341 340 342 346 342 340
311 310 311 319 316 315 318 316 317 322 327 322 321 323 324 324 328 329 328 330 332 334 334 335 334 332 332 334 335 335 334 333 333 332 332 334 337 337 341 341 339 339 340 340 340
311 310 314 319 318 322 321 318 320 323 330 327 323 324 324 325 328 328 328 330 331 331 330 331 330 330 330 331 332 334 332 330 331 332 333 334 335 334 338 343 342 341 342 341 341
312 309 318 321 322 323 322 322 321 322 335 329 327 324 325 326 327 327 326 328 329 329 330 330 330 330 330 330 329 330 330 330 331 332 332 333 337 335 340 340 340 341 342 340 342
311 311 321 320 319 322 320 320 320 332 336 332 325 325 325 326 326 326 327 326 328 328 329 329 329 329 329 330 331 331 331 330 331 333 335 334 337 335 334 338 337 340 344 341 343
310 318 323 320 322 320 322 323 329 334 330 331 329 326 327 327 327 326 327 329 330 332 332 330 329 331 329 331 331 332 333 335 334 335 335 337 337 337 336 337 337 340 343 343 345
310 322 324 321 321 322 322 326 330 331 332 329 330 327 326 327 327 327 327 328 328 328 329 330 334 333 333 333 334 334 335 336 339 337 335 332 337 339 339 339 338 340 343 344 344
316 324 327 324 322 323 327 326 329 331 328 329 330 330 331 330 334 333 334 335 333 331 334 335 335 333 335 335 335 334 336 336 336 333 339 335 337 337 339 339 340 342 343 344 342
319 327 324 321 321 324 326 323 325 327 326 327 332 331 333 334 334 334 334 335 337 338 338 335 336 331 333 336 336 337 336 336 335 340 339 334 335 340 338 337 339 341 343 343 341
325 332 327 322 320 326 325 323 322 324 326 326 329 330 330 331 331 330 329 334 337 337 338 337 339 337 335 336 336 337 338 338 339 337 339 339 336 338 337 337 338 341 342 342 340
331 333 329 322 325 324 324 323 318 322 323 324 328 330 329 329 329 329 331 335 337 338 337 342 342 341 336 335 336 337 339 339 342 341 340 345 340 338 338 337 338 339 342 341 338
330 338 331 324 324 322 325 325 324 324 326 329 330 330 332 331 333 334 336 336 337 337 339 340 336 342 335 338 338 337 337 338 339 342 342 342 341 337 338 338 337 339 340 340 337
329 340 331 328 334 335 332 329 329 330 330 331 332 332 336 334 337 339 337 338 338 339 332 337 342 343 344 341 340 341 338 337 340 346 344 340 340 339 340 340 337 338 339 338 337
325 339 330 334 333 338 341 339 333 334 332 334 336 334 334 337 338 338 337 338 339 336 339 342 346 342 340 337 337 338 339 337 339 341 345 340 339 340 339 337 335 336 339 336 335
320 323 326 333 336 342 335 340 339 338 338 335 337 335 337 339 338 337 335 336 336 340 339 341 343 340 341 336 336 338 337 340 339 336 338 339 342 332 330 332 336 336 336 332 333
314 315 324 333 340 343 344 345 341 343 337 336 338 337 338 340 338 339 338 340 340 339 340 341 341 343 342 338 339 341 341 337 333 335 337 340 334 327 329 326 323 327 333 333 331
Wind_Speed
15 15 14 13 10 5 2 0 1 1 2 2 2 2 3 4 5 5 10 3 4 8 10 8 6 5 6 3 4 3 6 4 7 2 6 3 4 1 1 3 6 5 3 4 15
16 14 14 13 11 7 3 1 2 2 1 1 2 2 3 4 5 12 8 9 9 10 9 7 4 4 3 2 2 4 4 6 4 4 3 3 2 1 4 6 8 8 5 6 18
19 15 13 12 11 9 3 2 2 2 1 1 2 3 3 3 7 8 15 10 11 13 4 3 2 4 3 2 1 2 6 4 4 3 5 7 5 4 8 7 3 5 8 10 15
22 16 13 12 10 8 4 3 3 2 1 1 2 2 3 3 11 6 11 13 11 11 7 4 4 4 3 2 1 4 2 3 2 1 4 7 7 6 6 8 7 5 4 12 12
28 19 15 12 10 8 5 3 3 3 2 1 1 2 1 7 1 6 6 15 13 11 11 6 6 6 6 5 2 5 4 4 4 8 6 7 6 7 2 5 5 3 3 8 8
32 24 21 14 11 8 6 4 3 3 2 2 1 1 4 9 4 1 6 16 13 14 8 6 4 8 7 5 5 6 8 4 2 2 2 9 2 4 4 3 2 1 3 5 7
35 28 23 18 12 8 6 3 3 3 3 2 1 1 6 5 2 3 9 14 14 14 7 7 6 7 8 3 6 5 6 4 4 3 4 9 6 0 2 1 0 2 4 5 6
36 33 27 20 13 8 5 2 3 3 3 2 2 2 2 2 3 4 7 10 11 9 9 3 6 10 7 2 6 5 3 4 5 3 2 5 3 3 1 4 2 2 4 5 6
38 36 31 22 13 6 2 2 4 3 2 3 1 5 5 3 5 8 9 7 11 10 5 4 6 8 6 10 11 9 8 4 4 2 3 4 9 3 2 4 5 4 4 5 6
38 39 35 25 12 4 2 5 5 4 2 1 3 5 6 4 6 9 9 11 8 11 7 7 6 9 10 8 7 6 9 8 8 4 6 8 9 3 5 6 6 5 5 4 5
39 40 37 27 11 2 9 4 5 5 7 4 3 3 6 5 7 8 11 12 8 9 14 10 10 10 7 7 9 9 10 10 5 3 8 13 9 8 9 10 9 8 7 5 5
40 42 39 26 9 4 9 5 3 4 4 6 6 6 4 1 7 10 12 12 10 14 8 7 14 13 4 11 10 11 11 11 6 1 7 16 15 15 11 11 9 9 8 8 9
40 42 40 21 2 6 6 3 2 5 5 7 5 7 5 8 7 14 15 12 11 11 12 15 13 1 7 14 14 16 14 11 16 17 14 15 16 10 8 11 6 6 7 7 9
40 42 40 10 2 3 5 5 2 4 5 9 8 7 7 6 8 7 15 8 7 13 9 11 8 8 13 13 14 17 13 17 14 16 14 4 14 16 5 10 12 11 10 10 9
40 41 34 7 2 5 4 2 3 4 5 8 7 4 4 14 3 11 10 8 15 11 8 12 8 10 12 15 15 16 15 15 15 17 17 16 10 11 5 7 12 11 10 10 11
40 40 20 4 4 3 2 1 4 7 3 7 8 11 12 15 8 5 9 7 4 10 11 17 18 8 18 15 15 12 15 18 17 15 13 10 7 11 10 11 11 9 9 11 12
40 32 8 3 1 1 2 5 6 6 4 8 9 10 16 12 14 9 10 13 13 13 14 15 13 10 7 14 8 7 12 12 12 11 9 5 7 12 13 8 7 9 11 12 12
38 15 4 5 3 2 6 6 7 2 4 3 5 8 13 8 8 10 12 13 15 13 14 14 13 2 4 7 10 11 9 10 17 13 16 17 10 5 4 3 3 5 12 12 12
31 4 2 3 5 4 6 8 3 3 2 4 9 12 9 9 5 8 8 5 4 6 8 12 11 2 3 7 6 7 9 7 11 18 10 13 7 8 4 2 3 8 10 11 11
15 5 2 2 2 5 8 6 3 1 2 4 10 7 10 12 9 7 5 3 2 1 3 6 14 13 5 5 9 12 5 11 8 10 14 12 9 8 3 6 5 9 10 11 13
4 4 3 1 2 5 9 6 3 2 5 3 3 6 5 7 7 4 0 5 1 2 3 7 7 14 5 13 13 7 11 6 5 7 14 14 6 2 5 9 8 8 11 13 15
6 4 2 1 6 3 8 4 1 5 5 6 3 1 7 5 5 4 3 2 3 2 6 5 6 13 18 10 6 9 14 15 10 14 8 12 11 6 6 6 5 3 10 13 16
7 3 1 3 5 7 4 7 4 6 6 4 6 4 3 7 5 5 3 5 3 3 4 3 5 10 9 6 4 7 8 9 11 10 16 14 9 6 2 4 3 3 11 12 13
4 3 4 3 1 5 3 8 9 6 8 5 2 5 8 7 4 4 5 3 3 3 3 1 7 10 12 15 13 14 14 11 10 9 13 12 11 14 14 10 3 5 10 11 5
2 3 4 1 4 4 4 2 8 7 5 6 6 9 9 7 5 4 2 5 3 3 3 3 7 9 12 14 13 13 12 10 14 14 12 17 13 13 12 6 7 8 9 7 2
5 4 4 4 4 6 4 4 5 4 4 10 8 7 5 3 1 2 3 3 3 4 1 1 6 9 13 3 6 9 5 9 5 10 11 9 6 12 12 9 6 6 8 12 14
9 5 4 1 2 5 2 2 1 3 3 1 4 6 6 6 5 5 3 2 1 2 1 2 6 7 6 5 10 1 11 8 7 10 9 9 11 12 14 15 12 12 9 5 8
Wind_Direction
24 19 17 17 17 13 5 298 215 217 228 247 267 277 279 286 274 239 226 191 180 163 135 161 190 214 230 260 280 283 229 158 112 180 79 88 239 144 343 202 218 190 284 67 147
21 17 13 10 13 6 360 278 234 228 241 267 294 297 295 308 254 236 225 205 190 169 152 192 197 213 234 253 228 274 285 69 27 55 21 149 299 168 250 205 222 202 133 157 159
14 11 8 5 3 4 343 281 236 241 257 285 313 307 308 317 232 203 211 198 186 182 235 241 263 266 269 260 102 75 17 58 80 360 299 303 280 251 271 283 282 278 195 172 176
12 5 359 357 358 354 338 273 250 236 251 267 303 313 308 237 176 129 194 192 190 187 223 227 250 263 301 5 40 291 99 308 11 291 312 302 320 271 285 354 339 316 320 175 188
14 10 360 351 350 347 333 268 234 218 228 251 297 326 276 209 109 132 144 178 178 196 220 240 285 317 356 357 302 256 329 318 256 286 282 310 275 322 359 341 328 343 194 183 190
15 11 4 352 345 339 330 272 234 219 213 234 278 287 244 207 72 147 176 178 186 201 224 244 322 343 297 313 299 338 314 303 280 277 273 304 332 278 102 343 37 66 134 164 183
12 9 3 355 344 337 326 272 224 211 213 215 240 255 249 47 109 99 166 193 190 202 218 248 285 278 334 264 320 295 291 169 123 53 17 321 225 298 19 347 115 119 134 142 163
7 7 3 356 346 336 328 258 203 198 210 201 200 236 257 133 167 162 163 173 199 203 242 292 261 280 265 282 230 269 241 252 93 303 92 281 345 110 307 281 244 166 156 151 161
2 3 2 355 347 336 328 164 174 173 180 153 172 245 148 168 215 200 185 179 179 202 229 245 244 274 231 243 242 212 272 251 266 219 305 253 313 109 253 242 245 219 178 160 152
358 358 359 352 345 327 159 145 142 128 146 172 251 231 188 168 143 157 181 175 176 183 202 217 226 248 226 252 318 267 314 310 265 115 246 262 264 230 220 230 226 211 196 196 169
354 355 356 348 340 228 147 134 202 180 210 272 141 316 120 120 150 183 172 186 190 208 225 205 246 257 312 304 320 305 297 292 294 314 272 300 299 282 225 222 227 214 206 202 169
351 351 352 345 342 180 174 247 21 16 220 219 247 266 239 283 182 163 175 198 201 218 205 228 235 252 286 288 266 280 282 281 296 257 290 301 304 289 233 246 242 212 191 182 156
349 348 348 343 93 147 214 232 180 340 250 164 199 227 205 205 213 176 195 217 218 225 229 260 295 66 271 270 254 261 270 286 297 312 276 260 274 235 234 241 231 222 175 171 163
346 345 343 348 143 177 206 185 242 278 243 148 197 202 192 227 228 185 208 233 225 256 242 258 267 277 268 262 269 271 276 291 301 287 293 327 291 298 221 227 221 213 202 189 155
345 341 338 316 288 224 118 279 251 193 204 145 148 115 183 211 85 181 197 217 257 220 241 260 222 252 265 276 279 298 296 301 298 291 292 285 243 282 202 249 241 214 205 193 169
342 338 335 357 224 247 274 190 198 232 145 147 147 182 183 204 217 123 196 223 300 271 248 270 287 277 276 286 289 291 277 270 263 260 259 295 321 292 311 356 320 173 188 166 158
340 336 322 236 32 223 263 198 227 252 138 158 175 186 204 190 223 217 187 212 236 243 252 254 258 240 284 273 240 246 257 271 265 248 283 168 287 297 332 343 304 173 172 160 146
339 334 318 226 257 290 201 215 238 116 191 131 192 180 196 181 215 208 240 251 232 265 271 278 292 174 120 290 315 300 307 289 299 302 312 318 280 9 19 11 329 143 149 149 153
340 330 247 295 233 218 231 216 227 184 116 193 174 185 176 189 252 212 230 302 8 236 265 304 275 92 269 298 281 290 252 350 300 271 250 276 297 243 167 198 208 167 166 154 147
333 290 92 86 155 229 233 250 255 232 313 219 198 225 189 182 205 213 180 109 155 349 288 313 289 295 302 278 230 253 329 277 260 287 289 297 280 294 166 12 190 206 193 164 150
306 253 95 285 228 223 225 214 265 253 264 256 191 180 192 182 233 216 286 122 181 149 286 308 269 294 243 258 285 246 246 230 302 294 291 290 304 72 10 352 337 197 201 171 152
307 234 70 285 211 236 232 234 359 263 231 230 261 241 203 180 218 241 272 359 69 5 296 30 302 287 287 310 298 284 292 303 288 278 261 287 286 83 62 31 32 151 174 173 158
318 305 110 284 238 206 193 246 261 246 225 210 214 217 188 194 217 236 185 79 70 346 339 16 259 290 284 205 216 268 295 277 283 290 270 278 265 77 87 19 46 194 172 170 176
290 255 157 208 36 303 254 235 235 215 252 238 190 180 182 186 193 193 200 99 72 61 49 246 259 265 285 311 312 293 291 308 293 268 273 277 320 314 47 18 10 253 184 170 152
334 65 360 232 150 303 252 297 225 206 223 210 196 205 195 198 202 231 218 161 134 144 197 268 271 291 294 299 299 286 276 282 262 271 273 283 278 3 351 335 322 285 93 49 268
338 344 336 279 285 269 169 180 243 152 238 180 220 158 166 189 331 325 302 253 300 159 229 181 285 306 294 303 289 292 332 348 353 356 313 318 66 7 17 66 24 97 139 179 220
359 309 288 221 258 256 104 344 160 309 88 359 149 165 156 77 59 58 53 78 77 274 181 268 319 300 284 311 302 217 16 58 62 25 355 23 17 16 43 54 39 4 8 308 246